User: anonymous   Login
Location: Weston
(26.1283°N, 80.4075°W)
Time: 11:10:56
(UTC-04:00)
Language:

H-2A R/B - Orbit

View from above orbital plane
View from above orbital plane
View from above satellite
View from above satellite

Ground track
Ground track

The orbit data is extracted from the following two-line orbital elements,

1 26899U 01038B   16273.04663517  .00000256  00000-0  85689-3 0  9999
2 26899  27.9956 171.6480 7104767  14.7870 358.2422  2.47267375130047
Epoch (UTC): 29 September 2016 01:07:09
Eccentricity: 0.7104767
inclination: 27.9956°
perigee height: 310 km
apogee height: 33134 km
right ascension of ascending node: 171.6480°
argument of perigee: 14.7870°
revolutions per day: 2.47267375
mean anomaly at epoch: 358.2422°
orbit number at epoch: 13004

The dashed part of the orbit path shows where the satellite is in the earth's shadow,  

DLR